Terminal Aerodrome Forecast
Issued by NWS

Home | Current Version | Previous Version | Text Only | Print | Product List | Glossary On
Versions: 1 2 3 4 5 6 7 8 9 10 11 12 13 14 15 16 17 18 19 20 21 22 23 24 25
000
FTAK31 PAJN 191500 AAC
TAFAYA
TAF AMD
PAYA 191501Z 1915/2012 15012KT 6SM -RA BR BKN015 OVC025
      TEMPO 1915/1919 1 1/2SM SHRA BR OVC008
     FM192000 10010KT 4SM -RA BR OVC020 WS020/19035KT
     FM200300 10009KT 5SM -RA SCT020 OVC040
      AMD LTD TO CLD VIS AND WIND 2001/2010=

USA.gov is the U.S. government's official web portal to all federal, state and local government web resources and services.